ECHOSTAR 19

Last updated on Sun Dec 14 2025 00:02:51 GMT+0000 (Coordinated Universal Time)

1 41893U 16079A 25347.16433712 -.00000125 00000+0 00000+0 0 9993 2 41893 0.0180 10.1672 0001350 256.7119 137.2754 1.00270212 32833
UTC large
Height (km)
Speed (km/s)
/
Latitude / Longitude
Inclination (degrees)
Orbital Period (minutes)
Azimuth
Elevation
Range (km)
Doppler Factor

Next 0 passes for location: London (51.5072 / 0.1276)

Sorry there are no passes over London.